DELTA 1 DEB, 10720

Orbit data source: Space-Track

DELTA 1 DEB, 10720 is space debris in SSO originally from a launch on Thu, 29 Jul 1976 UTC launched from the Air Force Western Test Range (AFWTR). Debris objects in space refer to the collection of defunct objects orbiting the Earth. Examples of debris include non-operational satellites, rocket bodies, and fragments generated from explosions, collisions, or faulty payload assembly.

Loading next visibility...
Identifier
10720, 1976-077AR
Orbit
SSO
Country
Flag of USUS
Related business
Manufacturer
Unknown
Mission
Spacecraft
Bus & Motor
Unknown
Mass
Unknown
Launch date (UTC)
1976-07-29 (50 years ago)
Launch vehicle
Unknown
Launch site
Air Force Western Test Range (AFWTR)
Object type
Payload
Rocket body
Debris
Shape & HBR
Unknown shape, 0.2 m
Radar Cross Section
Small (<0.1 m²)

Expand to show TLE details & history
Last TLE update: 11 hours ago

TLE from 11 hours ago
0 DELTA 1 DEB
1 10720U 76077AR  26063.29086294  .00000095  00000-0  12993-2 0  9994
2 10720 102.1146 176.4577 0357796   6.8640  16.6717 12.05659479183272
Epoch: 2026-03-04T06:58Z
TLE epoch observation values (Epoch: 2026-03-04T06:58:50.558Z)
Latitude
24.20353°
Longitude
-95.81957°
Altitude
1,383.673 km
Speed
7.291 km/s
True Right ascension
11h 23m 47s
True Declination
24° 05' 08"
Sunlit
Object was in full shadow at epoch
Visualization orbit readout
Latitude
Unknown
Longitude
Unknown
Altitude
Unknown
Speed
Unknown
Apparent Right ascension
Unknown
Apparent Declination
Unknown
Sunlit
N/A
Visualization observer readout
Local Sidereal Time
22:16:29
Azimuth
Unknown
Elevation
Unknown
Doppler factor
Unknown
Orbital elements
Apogee altitude
1,940.602 km
Perigee altitude
1,365.883 km
Semi-major axis
8,031.38 km
Eccentricity
0.03578
Inclination
102.1146°
RAAN
176.4577°
Arg. of periapsis
6.864°
True anomaly
17.90041°
Mean anomaly
16.6717°
Eccentric anomaly
17.28066°
Mean motion
3.01549 °/min
Orbital period
119.38 mins
BSTAR
0.0012993
Loading maneuver chart data...
Computing Atmospheric mass density...
Loading historical data...
Loading historical data...
Loading historical data...
Loading historical data...
Loading historical data...
Loading historical data...
Loading historical data...

Documentation

Showing up to 5 results
|